TimeMST,TemperatureF,Dew PointF,Humidity,Sea Level PressureIn,VisibilityMPH,Wind Direction,Wind SpeedMPH,Gust SpeedMPH,PrecipitationIn,Events,Conditions,WindDirDegrees,DateUTC
12:53 AM,26.1,15.1,63,29.95,10.0,Calm,Calm,-,N/A,,Overcast,0,2012-12-07 07:53:00
1:53 AM,24.1,16.0,71,29.95,10.0,SW,3.5,-,N/A,,Overcast,220,2012-12-07 08:53:00
2:53 AM,28.9,17.1,61,29.95,10.0,Calm,Calm,-,N/A,,Overcast,0,2012-12-07 09:53:00
3:53 AM,28.0,18.0,66,29.96,10.0,Calm,Calm,-,N/A,,Overcast,0,2012-12-07 10:53:00
4:53 AM,28.0,21.0,75,29.98,10.0,Calm,Calm,-,N/A,,Overcast,0,2012-12-07 11:53:00
5:26 AM,28.4,21.2,74,29.87,10.0,WNW,3.5,-,N/A,,Overcast,290,2012-12-07 12:26:00
5:53 AM,27.0,21.9,81,29.98,10.0,Calm,Calm,-,N/A,,Mostly Cloudy,0,2012-12-07 12:53:00
6:53 AM,25.0,21.0,85,29.99,10.0,Calm,Calm,-,N/A,,Clear,0,2012-12-07 13:53:00
7:53 AM,25.0,21.0,85,30.00,10.0,WNW,5.8,-,N/A,,Clear,300,2012-12-07 14:53:00
8:53 AM,28.0,21.9,78,29.99,10.0,Calm,Calm,-,N/A,,Scattered Clouds,0,2012-12-07 15:53:00
9:53 AM,30.9,24.1,76,30.00,10.0,WSW,5.8,-,N/A,,Clear,240,2012-12-07 16:53:00
10:53 AM,34.0,24.1,67,29.99,10.0,WSW,3.5,-,N/A,,Clear,250,2012-12-07 17:53:00
11:53 AM,35.1,23.0,61,29.97,10.0,West,4.6,-,N/A,,Clear,270,2012-12-07 18:53:00
12:53 PM,37.0,21.0,52,29.95,10.0,West,5.8,-,N/A,,Clear,260,2012-12-07 19:53:00
1:53 PM,37.0,19.9,50,29.94,10.0,Variable,3.5,-,N/A,,Clear,0,2012-12-07 20:53:00
2:53 PM,36.0,24.1,62,29.94,10.0,South,3.5,-,N/A,,Overcast,190,2012-12-07 21:53:00
3:53 PM,30.0,21.0,69,29.96,10.0,SW,6.9,-,N/A,,Partly Cloudy,220,2012-12-07 22:53:00
4:53 PM,28.9,21.9,75,29.96,10.0,SSW,6.9,-,N/A,,Mostly Cloudy,200,2012-12-07 23:53:00
6:53 PM,26.1,21.9,84,29.96,10.0,South,5.8,-,N/A,,Overcast,180,2012-12-08 01:53:00
7:20 PM,26.6,24.8,93,29.86,2.0,South,8.1,-,0.00,Snow,Light Snow,170,2012-12-08 02:20:00
7:28 PM,26.6,24.8,93,29.85,1.0,SSE,8.1,-,0.00,Snow,Light Snow,160,2012-12-08 02:28:00
7:45 PM,26.6,24.8,93,29.84,1.5,SE,8.1,-,0.01,Snow,Light Snow,140,2012-12-08 02:45:00
7:51 PM,26.6,24.8,93,29.84,3.0,SE,5.8,-,0.01,Snow,Light Snow,140,2012-12-08 02:51:00
7:53 PM,27.0,25.0,92,29.94,4.0,SE,5.8,-,0.01,Snow,Light Snow,140,2012-12-08 02:53:00
8:53 PM,26.1,24.1,92,29.91,10.0,SSE,10.4,-,0.00,,Mostly Cloudy,160,2012-12-08 03:53:00
9:05 PM,26.6,23.0,86,29.82,10.0,South,10.4,-,N/A,,Mostly Cloudy,170,2012-12-08 04:05:00
9:53 PM,21.9,19.9,92,29.90,10.0,South,6.9,-,N/A,,Clear,170,2012-12-08 04:53:00
10:53 PM,21.0,18.0,88,29.88,10.0,SSE,5.8,-,N/A,,Clear,150,2012-12-08 05:53:00
11:53 PM,18.0,14.0,84,29.86,10.0,South,3.5,-,N/A,,Clear,170,2012-12-08 06:53:00